STARLINK-35286, 65803

Orbit data source: Space-Track

STARLINK-35286, 65803 is a payload satellite owned by SpaceX/Seattle (US) in SSO that was launched on Fri, 26 Sep 2025 UTC via an FALCON 9 launch vehicle from the Air Force Western Test Range (AFWTR). Payload-class satellites include a variety of spacecraft equipped with specific instruments for various scientific and technological missions. These include communications satellites like Starlink; space stations such as the ISS; scientific satellites like the Hubble; Earth observation satellites from companies like Planet Labs, Umbra, and HawkEye 360; GPS; miniature CubeSats for education and research; and military/defense satellites.

Loading next visibility...
Identifier
65803, 2025-218N
Orbit
SSO
Country
Flag of USUS
Related business
Manufacturer
SpaceX/Seattle
Mission
Operational Commercial Communications
Bus & Motor
STARLINK V2MO, Unknown motor
Mass
575 kg wet, ~530 kg dry
Launch date (UTC)
2025-09-26 (1 month ago)
Launch vehicle
FALCON 9
Launch site
Air Force Western Test Range (AFWTR)
Object type
Payload
Rocket body
Debris
Shape & HBR
Box + 2 Pan, 17.7 m
Radar Cross Section
36.964 m²

Expand to show TLE details & history
Last TLE update: 2 days ago

TLE from 2 days ago
0 STARLINK-35286
1 65803U 25218N   25312.19089615  .00006882  00000-0  47025-3 0  9997
2 65803  97.6017 173.1265 0003266  65.3198 294.8369 15.06467757  6687
Epoch: 2025-11-08T04:34Z
TLE epoch observation values (Epoch: 2025-11-08T04:34:53.427Z)
Latitude
-0.00002°
Longitude
56.77983°
Altitude
549.121 km
Speed
7.588 km/s
True Right ascension
11h 32m 30s
True Declination
0° 00' 00"
Sunlit
Object was in daylight at epoch
Visualization orbit readout
Latitude
Unknown
Longitude
Unknown
Altitude
Unknown
Speed
Unknown
Apparent Right ascension
Unknown
Apparent Declination
Unknown
Sunlit
N/A
Visualization observer readout
Local Sidereal Time
03:32:50
Azimuth
Unknown
Elevation
Unknown
Doppler factor
Unknown
Orbital elements
Apogee altitude
546.257 km
Perigee altitude
541.735 km
Semi-major axis
6,922.133 km
Eccentricity
0.00033
Inclination
97.6017°
RAAN
173.1265°
Arg. of periapsis
65.3198°
True anomaly
294.80293°
Mean anomaly
294.8369°
Eccentric anomaly
294.81992°
Mean motion
3.76863 °/min
Orbital period
95.53 mins
BSTAR
0.00047025
Loading maneuver chart data...
Computing Atmospheric mass density...
Loading historical data...
Loading historical data...
Loading historical data...
Loading historical data...
Loading historical data...
Loading historical data...
Loading historical data...

Documentation

Showing up to 5 results
|